Location: Pensacola
(30.4142°N, 87.2155°W)
Time: 06:16:05
(UTC-05:00)

AO-27 - Pass Details

Date: 30 May 2024
Orbit: 784 x 794 km, 98.7° (Epoch: 20 April)

Event Time Altitude Azimuth Distance (km) Brightness Sun altitude
Rises 11:00:24 0° 357° (N) 3,275 10.8 64.8°
Reaches altitude 10° 11:03:02 10° 346° (NNW) 2,343 10.1 65.3°
Maximum altitude 11:07:16 26° 290° (WNW) 1,488 9.2 66.2°
Drops below altitude 10° 11:11:31 10° 235° (SW) 2,336 10.1 67.1°
Enters shadow 11:41:47 -60° 190° (S) 11,932 13.2 73.2°
Exits shadow 12:13:17 -56° 40° (NE) 11,538 13.1 78.7°
